Location: Unspecified
(0.0000°N, 0.0000°E)
Time: 01:59:07
(UTC+01:00)

NOAA 12 - Visible Passes

Search period start: 02 March 2015 00:00
Search period end: 12 March 2015 00:00
Orbit: 796 x 815 km, 98.6° (Epoch: 01 March)

Date Brightness Start Highest point End Pass type
(mag) Time Alt. Az. Time Alt. Az. Time Alt. Az.
02 Mar 4.9 20:34:14 10° S 20:39:25 53° WSW 20:44:34 10° NNW visible
03 Mar 4.0 20:09:16 10° SSE 20:14:35 78° ENE 20:19:54 10° N visible
04 Mar 4.6 19:44:51 10° SE 19:49:45 39° ENE 19:54:41 10° N visible
04 Mar 7.1 21:26:48 10° SW 21:29:29 13° W 21:31:45 10° WNW visible
05 Mar 6.2 21:00:05 10° SSW 21:04:34 27° WSW 21:08:55 10° NW visible
06 Mar 4.9 20:34:31 10° S 20:39:42 53° WSW 20:44:52 10° NNW visible
07 Mar 4.0 20:09:33 10° SSE 20:14:53 78° ENE 20:20:12 10° N visible
08 Mar 4.5 19:45:09 10° SE 19:50:03 39° ENE 19:55:00 10° N visible
08 Mar 7.1 21:27:08 10° SW 21:29:46 13° W 21:32:00 10° WNW visible
09 Mar 6.2 21:00:24 10° SSW 21:04:52 26° WSW 21:09:11 10° NW visible
10 Mar 4.9 20:34:49 10° S 20:40:00 52° WSW 20:45:09 10° NNW visible
11 Mar 4.0 20:09:51 10° SSE 20:15:11 79° ENE 20:20:30 10° N visible
